Location: Bletchingley
(51.2333°N, 0.1000°W)
Time: 13:50:58
(UTC+00:00)

Cosmos 1025 Rocket - Pass Details

Date: 18 September 2020
Orbit: 595 x 617 km, 82.5° (Epoch: 25 October)

Event Time Altitude Azimuth Distance (km) Brightness Sun altitude
Rises 18:44:31 0° 356° (N) 2,885 6.7 -6.7°
Reaches altitude 10° 18:46:56 10° 6° (N) 1,980 5.7 -7.0°
Maximum altitude 18:50:54 32° 70° (ENE) 1,060 3.8 -7.7°
Drops below altitude 10° 18:54:50 10° 135° (SE) 1,976 5.1 -8.3°
Enters shadow 18:56:07 - 141° (SE) 2,444 5.6 -8.4°
